Simultaneous Nadir Overpasses (SNOs) Predictions

Prediction of SNOs over PacNW region [( 10.00, 139.50) to ( 22.70, 165.60)] between AQUA and NPP Satellites:

Table of predicted SNOs over PacNW region for the next 30.0 days since TLE Epoch: 10/1/2022
Index Date (AQUA) Time (AQUA) AQUA Lat,Lon Date (NPP) Time (NPP) NPP Lat,Lon Distance(km) Time Diff (sec)
1 10/07/2022 02:58:42 22.67, 157.12 10/07/2022 02:56:28 21.98, 153.75 355.05 134
2 10/15/2022 03:44:14 17.49, 146.63 10/15/2022 03:45:40 16.55, 142.39 462.78 86
3 10/17/2022 15:45:03 10.05, 150.51 10/17/2022 15:41:34 8.84, 147.38 368.56 209
4 10/23/2022 02:51:03 13.17, 160.64 10/23/2022 02:53:40 12.18, 156.11 503.94 157
5 10/25/2022 14:53:02 10.02, 163.56 10/25/2022 14:50:31 9.86, 160.31 355.77 151
6 10/25/2022 16:28:37 21.89, 141.52 10/25/2022 16:28:24 22.58, 137.97 374.23 13
